Tracking 20041 objects as of 22-Nov-2019
Live streaming from Space Station
objects crossing your sky now

COSMOS 647

Track COSMOS 647 now!
10-day predictions
COSMOS 647 is classified as:


NORAD ID: 7271
Int'l Code: 1974-024G
Perigee: 1,429.1 km
Apogee: 1,490.6 km
Inclination: 74.0 °
Period: 114.9 minutes
Semi major axis: 7830 km
RCS: 0.7018 m2 (medium)
Launch date: April 23, 1974
Source: Commonwealth of Independent States (former USSR) (CIS)
Launch site: PLESETSK MISSILE AND SPACE COMPLEX (PKMTR)
aabbcc
Your satellite tracking list
Your tracking list is empty




NASA's NSSDC Master Catalog

Two Line Element Set (TLE):
1  7271U 74024G   19325.91283610 +.00000006 +00000-0 +13763-3 0  9993
2  7271 074.0145 140.9959 0039266 196.1894 314.9988 12.52832034084566
Source of the keplerian elements: AFSPC